Regional Weather Roundup
Issued by NWS

Home | Current Version | Previous Version | Graphics & Text | Print | Product List | Glossary On
Versions: 1 2 3 4 5 6 7 8 9 10 11 12 13 14 15 16 17 18 19 20 21 22 23 24 25 26 27 28 29 30 31 32 33 34 35 36 37 38 39 40 41 42 43 44 45 46 47 48 49 50
000
ASUS43 KIND 202000
RWRIN

WEATHER ROUNDUP FOR INDIANA
NATIONAL WEATHER SERVICE INDIANAPOLIS IN
400 PM EDT FRI OCT 20 2017

NOTE: "FAIR" INDICATES FEW OR NO CLOUDS BELOW 12,000 FEET WITH NO
SIGNIFICANT WEATHER AND/OR OBSTRUCTIONS TO VISIBILITY.

* - STATION DOES NOT REPORT WEATHER SUCH AS PRECIPITATION OR FOG.

+ - STATION NOT QUALITY CONTROLLED BY THE NATIONAL WEATHER SERVICE.
    USE DATA WITH CAUTION...ESPECIALLY DEWPOINT AND RELATIVE
    HUMIDITY OBSERVATIONS.

INZ001>003-010>013-019-020-202100-
NORTHWEST INDIANA

CITY           SKY/WX    TMP DP  RH WIND       PRES   REMARKS
GARY /AIRPORT/ MOSUNNY   79  45  29 S12       30.10F
KNOX *+        SUNNY     77  50  38 S12G18    30.13F
MONTICELLO +   SUNNY     76  48  36 S12       30.14F
RENSSELAER +   SUNNY     77  34  20 S10G16    30.13F

$$

LMZ046-743>745-202100-
SOUTHERN LAKE MICHIGAN

STATION/POSITION TIME  TEMP    WIND        PRES    WAVE
                       AIR SEA DIR/SP/G            HT
                 (UTC) (F)     (DEG/KT/KT) (MB)    (FT)
BURNS HARBOR     1940   77     180/ 12/ 18 1019.6F
MICHIGAN CITY    1930   76     180/ 13/ 15   N/A
5NW MICH CITY    1950   69 59  190/  8/  8   N/A     1

$$

INZ004-005-014>016-021>024-202100-
NORTH CENTRAL INDIANA

CITY           SKY/WX    TMP DP  RH WIND       PRES   REMARKS
ELKHART        SUNNY     75  50  41 S12       30.15F
GOSHEN         SUNNY     75  50  41 S13       30.15F
PERU/GRISSOM   SUNNY     77  51  40 SW9       30.15F
SOUTH BEND     CLOUDY    76  51  41 S10       30.14F

$$

INZ006>009-017-018-025>027-202100-
NORTHEAST INDIANA

CITY           SKY/WX    TMP DP  RH WIND       PRES   REMARKS
FORT WAYNE     PTSUNNY   76  51  41 S13       30.17F
KENDALLVILLE + SUNNY     76  52  43 SW8       30.17F

$$

INZ028-029-035-036-043>045-051>053-202100-
WEST CENTRAL INDIANA

CITY           SKY/WX    TMP DP  RH WIND       PRES   REMARKS
LAFAYETTE      SUNNY     76  51  41 VRB6      30.14F
TERRE HAUTE    SUNNY     76  49  38 S7        30.16F

$$

INZ030>032-037>040-046>048-054>057-064-065-202100-
CENTRAL INDIANA

CITY           SKY/WX    TMP DP  RH WIND       PRES   REMARKS
ANDERSON       SUNNY     75  50  41 S12       30.29
COLUMBUS       SUNNY     75  41  29 S7        30.19F
GREENWOOD *+   SUNNY     80  48  32 S7        30.19F
INDIANAPOLIS   PTSUNNY   75  49  39 S10       30.18F
-EAGLE CREEK   SUNNY     75  48  38 S10       30.17F
KOKOMO +       SUNNY     76  50  40 S13       30.18F
MT COMFORT *+  SUNNY     75  55  50 S8        30.19F
SHELBYVILLE    SUNNY     77  46  33 S12       30.18F

$$

INZ033-034-041-042-049-050-058-059-202100-
EAST CENTRAL INDIANA

CITY           SKY/WX    TMP DP  RH WIND       PRES   REMARKS
MUNCIE         SUNNY     78  48  34 S12       30.18F
RICHMOND +     SUNNY     73  50  43 SE8       30.22F

$$

INZ060-061-067>069-081>083-085>088-202100-
SOUTHWEST INDIANA

CITY           SKY/WX    TMP DP  RH WIND       PRES   REMARKS
EVANSVILLE     SUNNY     76  49  38 S9        30.16F
HUNTINGBURG +  SUNNY     77  52  41 S7        30.18F

$$

INZ062-063-066-070>080-084-089>092-202100-
SOUTH CENTRAL AND SOUTHEAST INDIANA

CITY           SKY/WX    TMP DP  RH WIND       PRES   REMARKS
BLOOMINGTON    SUNNY     77  48  35 SE8       30.18F
MADISON *+     SUNNY     77  45  31 SE7       30.22F
SEYMOUR +      SUNNY     77  52  41 S7        30.19F

$$




USA.gov is the U.S. government's official web portal to all federal, state and local government web resources and services.